[TLELIST] Archives

 

[TLELIST] Current TLEs

July 4th 2024 PDT

HST 1 20580U 90037B 24185.82091077 .00005585 00000-0 25810-3 0 9990 2 20580 28.4674 233.6697 0002497 207.8976 152.1483 15.17965816679561 ISS (ZARYA) 1 25544U 98067A 24186.37246838 .00009107 00000-0 16974-3 0 9999 2 25544 51.6398 230.1803 0010464 29.4437 80.4610 15.49557559461213 CXO 1 25867U 99040B 24189.01719773 .00000371 00000-0 00000+0 0 9999 2 25867 41.5904 151.9627 8875050 297.7533 0.0063 0.37805279 25796 ...Continue Reading

[TLELIST] Current TLEs

July 4th 2024 PDT

HST 1 20580U 90037B 24185.82091077 .00005585 00000-0 25810-3 0 9990 2 20580 28.4674 233.6697 0002497 207.8976 152.1483 15.17965816679561 ISS (ZARYA) 1 25544U 98067A 24186.37246838 .00009107 00000-0 16974-3 0 9999 2 25544 51.6398 230.1803 0010464 29.4437 80.4610 15.49557559461213 CXO 1 25867U 99040B 24189.01719773 .00000371 00000-0 00000+0 0 9999 2 25867 41.5904 151.9627 8875050 297.7533 0.0063 0.37805279 25796 ...Continue Reading

[TLELIST] Current TLEs

July 3rd 2024 PDT

HST 1 20580U 90037B 24184.44023262 .00005961 00000-0 27626-3 0 9993 2 20580 28.4678 242.9233 0002583 192.7302 167.3225 15.17950114679359 ISS (ZARYA) 1 25544U 98067A 24185.47368093 .00013894 00000-0 25469-3 0 9994 2 25544 51.6396 234.6273 0010084 25.6108 107.2101 15.49541502461070 CXO 1 25867U 99040B 24186.37207818 .00000303 00000-0 00000-0 0 9993 2 25867 41.5303 152.2092 8877997 297.5665 359.9725 0.37806437 14623 ...Continue Reading

[TLELIST] Current TLEs

July 3rd 2024 PDT

HST 1 20580U 90037B 24184.44023262 .00005961 00000-0 27626-3 0 9993 2 20580 28.4678 242.9233 0002583 192.7302 167.3225 15.17950114679359 ISS (ZARYA) 1 25544U 98067A 24185.47368093 .00013894 00000-0 25469-3 0 9994 2 25544 51.6396 234.6273 0010084 25.6108 107.2101 15.49541502461070 CXO 1 25867U 99040B 24186.37207818 .00000303 00000-0 00000-0 0 9993 2 25867 41.5303 152.2092 8877997 297.5665 359.9725 0.37806437 14623 ...Continue Reading

[TLELIST] Current TLEs

July 2nd 2024 PDT

HST 1 20580U 90037B 24183.84850882 .00006467 00000-0 30051-3 0 9990 2 20580 28.4680 246.8892 0002634 186.3507 173.7053 15.17944054679265 ISS (ZARYA) 1 25544U 98067A 24184.43975340 .00015309 00000-0 28007-3 0 9992 2 25544 51.6388 239.7468 0009481 23.0202 98.4459 15.49515016460919 CXO 1 25867U 99040B 24186.37207818 .00000303 00000-0 00000-0 0 9993 2 25867 41.5303 152.2092 8877997 297.5665 359.9725 0.37806437 14623 ...Continue Reading

[TLELIST] Current TLEs

July 1st 2024 PDT

HST 1 20580U 90037B 24182.53355762 .00007023 00000-0 32731-3 0 9998 2 20580 28.4678 255.7011 0002749 171.4338 188.6302 15.17927141679066 ISS (ZARYA) 1 25544U 98067A 24183.27740014 .00017591 00000-0 32088-3 0 9990 2 25544 51.6376 245.5033 0009371 18.4491 94.9116 15.49481735460736 CXO 1 25867U 99040B 24183.72926980 .00000284 00000-0 00000+0 0 9994 2 25867 41.4575 152.4943 8880247 297.3494 0.2694 0.37811031 25775 ...Continue Reading

[TLELIST] Current TLEs

July 1st 2024 PDT

HST 1 20580U 90037B 24182.53355762 .00007023 00000-0 32731-3 0 9998 2 20580 28.4678 255.7011 0002749 171.4338 188.6302 15.17927141679066 ISS (ZARYA) 1 25544U 98067A 24183.27740014 .00017591 00000-0 32088-3 0 9990 2 25544 51.6376 245.5033 0009371 18.4491 94.9116 15.49481735460736 CXO 1 25867U 99040B 24183.72926980 .00000284 00000-0 00000+0 0 9994 2 25867 41.4575 152.4943 8880247 297.3494 0.2694 0.37811031 25775 ...Continue Reading

[TLELIST] Current TLEs

June 30th 2024 PDT

HST 1 20580U 90037B 24181.54733439 .00008591 00000-0 40258-3 0 9993 2 20580 28.4679 262.3105 0002827 160.5192 199.5508 15.17913768678911 ISS (ZARYA) 1 25544U 98067A 24182.23525622 .00026310 00000-0 46754-3 0 9995 2 25544 51.6392 250.6622 0011086 22.0936 34.8107 15.49934787460571 CXO 1 25867U 99040B 24183.72926980 .00000284 00000-0 00000+0 0 9994 2 25867 41.4575 152.4943 8880247 297.3494 0.2694 0.37811031 25775 ...Continue Reading

[TLELIST] Current TLEs

June 29th 2024 PDT

HST 1 20580U 90037B 24180.95559552 .00008812 00000-0 41330-3 0 9997 2 20580 28.4679 266.2763 0002844 154.9695 205.1036 15.17904039679088 ISS (ZARYA) 1 25544U 98067A 24181.33790402 .00017184 00000-0 30915-3 0 9996 2 25544 51.6406 255.1033 0011433 18.9684 67.6820 15.49874053460433 CXO 1 25867U 99040B 24183.72926980 .00000284 00000-0 00000+0 0 9994 2 25867 41.4575 152.4943 8880247 297.3494 0.2694 0.37811031 25775 ...Continue Reading

[TLELIST] Current TLEs

June 28th 2024 PDT

HST 1 20580U 90037B 24179.57485692 .00006796 00000-0 31685-3 0 9997 2 20580 28.4684 275.5304 0002910 140.8899 219.1904 15.17879797678611 ISS (ZARYA) 1 25544U 98067A 24180.37742367 .00016634 00000-0 29995-3 0 9991 2 25544 51.6409 259.8610 0011178 16.1836 107.9356 15.49837815460283 CXO 1 25867U 99040B 24181.08524550 .00000400 00000-0 00000-0 0 9999 2 25867 41.3705 152.8194 8880550 297.1092 0.3691 0.37810062 14601 ...Continue Reading
  • This mailing list is a public mailing list - anyone may join or leave, at any time.
  • This mailing list is announce-only.

International Space Station (ISS) / Hubble Space Telescope (HST) / Chandra X-Ray Observatory Orbital Data via EMAIL

Privacy Policy:

Private list